| time (UTC) | temp F | wind direction | speed knots | gust knots | rain 1hr in | rain 24hr in | rain mn in | humidity % | barometer mb |
| 20260509173522 | 92 | 259 | 2.6 | 7.8 | 0.00 | 0.17 | 0.00 | 38 | 1010.6 |
| 20260509172518 | 91 | 283 | 3.5 | 7.8 | 0.00 | 0.17 | 0.00 | 40 | 1010.7 |
| 20260509171528 | 91 | 262 | 2.6 | 8.7 | 0.00 | 0.17 | 0.00 | 39 | 1010.8 |
| 20260509170524 | 91 | 268 | 3.5 | 8.7 | 0.00 | 0.17 | 0.00 | 40 | 1010.8 |
| 20260509165540 | 91 | 269 | 4.3 | 8.7 | 0.00 | 0.17 | 0.00 | 40 | 1010.9 |
| 20260509164555 | 91 | 264 | 3.5 | 7.8 | 0.00 | 0.17 | 0.00 | 41 | 1010.9 |
| 20260509163526 | 90 | 277 | 1.7 | 6.1 | 0.00 | 0.17 | 0.00 | 41 | 1011.0 |
| 20260509162522 | 90 | 259 | 3.5 | 8.7 | 0.00 | 0.17 | 0.00 | 40 | 1010.9 |
| 20260509161518 | 89 | 264 | 3.5 | 7.8 | 0.00 | 0.17 | 0.00 | 41 | 1010.8 |
| 20260509160529 | 89 | 256 | 3.5 | 8.7 | 0.00 | 0.17 | 0.00 | 40 | 1010.8 |
| 20260509155525 | 88 | 239 | 3.5 | 7.8 | 0.00 | 0.17 | 0.00 | 42 | 1010.9 |
| 20260509154520 | 87 | 263 | 4.3 | 8.7 | 0.00 | 0.17 | 0.00 | 43 | 1010.9 |
| 20260509153516 | 87 | 262 | 3.5 | 8.7 | 0.00 | 0.17 | 0.00 | 44 | 1010.8 |
| 20260509152527 | 87 | 265 | 4.3 | 8.7 | 0.00 | 0.17 | 0.00 | 45 | 1010.8 |
| 20260509151523 | 86 | 287 | 2.6 | 6.1 | 0.00 | 0.17 | 0.00 | 48 | 1010.6 |
| 20260509150519 | 86 | 270 | 2.6 | 7.8 | 0.00 | 0.17 | 0.00 | 51 | 1010.7 |
| 20260509145530 | 85 | 278 | 1.7 | 7.0 | 0.00 | 0.17 | 0.00 | 52 | 1010.7 |
| 20260509144525 | 85 | 267 | 1.7 | 5.2 | 0.00 | 0.17 | 0.00 | 54 | 1010.9 |
| 20260509143520 | 85 | 260 | 1.7 | 6.1 | 0.00 | 0.17 | 0.00 | 53 | 1010.9 |
| 20260509142516 | 87 | 224 | 0.9 | 3.5 | 0.00 | 0.17 | 0.00 | 50 | 1011.0 |
| 20260509141527 | 92 | 255 | 0.9 | 3.5 | 0.00 | 0.17 | 0.00 | 45 | 1011.1 |
| 20260509140523 | 92 | 280 | 2.6 | 6.1 | 0.00 | 0.17 | 0.00 | 44 | 1011.0 |
| 20260509135538 | 96 | 270 | 2.6 | 7.0 | 0.00 | 0.17 | 0.00 | 40 | 1011.0 |
| 20260509134529 | 93 | 258 | 1.7 | 5.2 | 0.00 | 0.17 | 0.00 | 45 | 1010.8 |
| 20260509133525 | 91 | 272 | 1.7 | 3.5 | 0.00 | 0.17 | 0.00 | 49 | 1010.7 |
| 20260509132521 | 87 | 255 | 2.6 | 5.2 | 0.00 | 0.17 | 0.00 | 52 | 1010.6 |
| 20260509131537 | 87 | 266 | 3.5 | 7.8 | 0.00 | 0.17 | 0.00 | 54 | 1010.6 |
| 20260509130528 | 81 | 269 | 2.6 | 7.8 | 0.00 | 0.17 | 0.00 | 65 | 1010.5 |
| 20260509125604 | 76 | 267 | 0.9 | 1.7 | 0.00 | 0.17 | 0.00 | 75 | 1010.4 |
| 20260509124519 | 72 | 264 | 1.7 | 3.5 | 0.00 | 0.17 | 0.00 | 83 | 1010.4 |
| 20260509123515 | 71 | 238 | 0.9 | 1.7 | 0.00 | 0.17 | 0.00 | 87 | 1010.4 |
| 20260509122526 | 70 | 177 | 0.0 | 0.9 | 0.00 | 0.17 | 0.00 | 88 | 1010.3 |
| 20260509121522 | 69 | 0.0 | 0.0 | 0.00 | 0.17 | 0.00 | 90 | 1010.1 | |
| 20260509120517 | 68 | 177 | 0.0 | 0.9 | 0.00 | 0.17 | 0.00 | 91 | 1010.1 |
| 20260509115528 | 68 | 177 | 0.0 | 0.9 | 0.00 | 0.17 | 0.00 | 90 | 1010.1 |
| 20260509114524 | 68 | 175 | 0.0 | 0.9 | 0.00 | 0.17 | 0.00 | 91 | 1010.1 |
| 20260509113540 | 69 | 182 | 0.0 | 0.9 | 0.00 | 0.17 | 0.00 | 90 | 1010.0 |
| 20260509112515 | 69 | 182 | 0.0 | 0.9 | 0.00 | 0.17 | 0.00 | 88 | 1010.0 |
| 20260509111526 | 70 | 262 | 0.0 | 1.7 | 0.00 | 0.17 | 0.00 | 87 | 1010.0 |
| 20260509110521 | 70 | 242 | 1.7 | 3.5 | 0.00 | 0.17 | 0.00 | 89 | 1010.0 |
| 20260509105516 | 70 | 246 | 0.9 | 1.7 | 0.00 | 0.17 | 0.00 | 89 | 1010.0 |
| 20260509104527 | 70 | 265 | 0.9 | 1.7 | 0.00 | 0.17 | 0.00 | 89 | 1009.8 |
| 20260509103522 | 70 | 266 | 1.7 | 5.2 | 0.00 | 0.17 | 0.00 | 90 | 1009.9 |
| 20260509102518 | 70 | 270 | 2.6 | 7.0 | 0.00 | 0.17 | 0.00 | 91 | 1009.8 |
| 20260509101547 | 69 | 260 | 5.2 | 9.6 | 0.00 | 0.17 | 0.00 | 92 | 1009.5 |
| 20260509100543 | 69 | 191 | 0.9 | 3.5 | 0.00 | 0.17 | 0.00 | 92 | 1008.0 |
| 20260509095619 | 69 | 164 | 2.6 | 7.0 | 0.00 | 0.17 | 0.00 | 92 | 1007.2 |
| 20260509094529 | 69 | 163 | 3.5 | 11.3 | 0.00 | 0.17 | 0.00 | 91 | 1007.3 |
| 20260509093604 | 69 | 171 | 4.3 | 11.3 | 0.00 | 0.17 | 0.00 | 91 | 1007.3 |
| 20260509092520 | 69 | 157 | 3.5 | 11.3 | 0.00 | 0.17 | 0.00 | 91 | 1007.4 |
| 20260509091530 | 69 | 185 | 4.3 | 11.3 | 0.00 | 0.17 | 0.00 | 91 | 1007.4 |
| 20260509090525 | 69 | 168 | 3.5 | 9.6 | 0.00 | 0.17 | 0.00 | 92 | 1007.4 |
| 20260509085541 | 69 | 161 | 3.5 | 7.8 | 0.00 | 0.17 | 0.00 | 91 | 1007.7 |
| 20260509084544 | 69 | 160 | 4.3 | 12.2 | 0.00 | 0.17 | 0.00 | 91 | 1008.0 |
| 20260509083519 | 69 | 155 | 3.5 | 7.0 | 0.00 | 0.17 | 0.00 | 91 | 1008.6 |
| 20260509082529 | 69 | 157 | 2.6 | 7.0 | 0.00 | 0.17 | 0.00 | 91 | 1008.9 |
| 20260509081522 | 69 | 161 | 3.5 | 9.6 | 0.00 | 0.17 | 0.00 | 91 | 1009.3 |
| 20260509080518 | 69 | 167 | 3.5 | 7.0 | 0.00 | 0.17 | 0.00 | 90 | 1010.0 |
| 20260509075528 | 69 | 156 | 1.7 | 5.2 | 0.00 | 0.17 | 0.00 | 90 | 1010.3 |
| 20260509074524 | 70 | 163 | 1.7 | 3.5 | 0.00 | 0.17 | 0.00 | 89 | 1010.8 |
| 20260509073525 | 70 | 202 | 0.9 | 3.5 | 0.00 | 0.17 | 0.00 | 89 | 1011.5 |
| 20260509072544 | 70 | 245 | 0.9 | 2.6 | 0.00 | 0.17 | 0.00 | 89 | 1011.4 |
| 20260509071519 | 70 | 239 | 1.7 | 2.6 | 0.00 | 0.17 | 0.00 | 88 | 1011.4 |
| 20260509070537 | 70 | 256 | 1.7 | 2.6 | 0.00 | 0.17 | 0.00 | 88 | 1011.6 |
| 20260509065517 | 70 | 239 | 0.0 | 1.7 | 0.00 | 0.17 | 0.00 | 89 | 1011.5 |
| 20260509064552 | 70 | 166 | 0.0 | 0.9 | 0.00 | 0.17 | 0.00 | 90 | 1011.4 |
| 20260509063529 | 70 | 166 | 0.0 | 0.9 | 0.00 | 0.17 | 0.00 | 89 | 1011.5 |
| 20260509062552 | 69 | 166 | 0.0 | 0.9 | 0.00 | 0.17 | 0.00 | 89 | 1011.4 |
| 20260509061544 | 69 | 176 | 0.0 | 1.7 | 0.00 | 0.17 | 0.00 | 89 | 1011.3 |
| 20260509060532 | 69 | 236 | 0.0 | 1.7 | 0.00 | 0.17 | 0.00 | 88 | 1011.4 |
| 20260509055533 | 69 | 240 | 0.9 | 1.7 | 0.00 | 0.17 | 0.00 | 88 | 1011.2 |
| 20260509054531 | 69 | 121 | 0.9 | 1.7 | 0.00 | 0.17 | 0.00 | 89 | 1010.9 |
| 20260509053531 | 69 | 138 | 0.0 | 0.9 | 0.00 | 0.17 | 0.00 | 89 | 1010.4 |
| 20260509052527 | 69 | 0.0 | 0.0 | 0.00 | 0.17 | 0.00 | 86 | 1010.7 | |
| 20260509051552 | 70 | 138 | 0.0 | 0.9 | 0.00 | 0.17 | 0.00 | 87 | 1010.6 |
| 20260509050619 | 70 | 138 | 0.9 | 0.9 | 0.00 | 0.17 | 0.00 | 87 | 1010.4 |
| 20260509045547 | 70 | 138 | 0.0 | 0.9 | 0.00 | 0.17 | 0.17 | 85 | 1010.4 |
| 20260509044621 | 71 | 138 | 0.0 | 0.9 | 0.00 | 0.17 | 0.17 | 85 | 1010.5 |
| 20260509043529 | 71 | 137 | 0.0 | 0.9 | 0.00 | 0.17 | 0.17 | 83 | 1011.0 |
| 20260509042537 | 71 | 138 | 0.0 | 0.9 | 0.00 | 0.17 | 0.17 | 83 | 1011.0 |
| 20260509041527 | 72 | 138 | 0.0 | 0.9 | 0.00 | 0.17 | 0.17 | 82 | 1010.7 |
| 20260509040522 | 72 | 142 | 0.9 | 3.5 | 0.00 | 0.17 | 0.17 | 83 | 1010.2 |
| 20260509035518 | 72 | 150 | 1.7 | 5.2 | 0.00 | 0.17 | 0.17 | 82 | 1010.1 |
| 20260509034531 | 73 | 155 | 1.7 | 5.2 | 0.00 | 0.17 | 0.17 | 80 | 1010.3 |
| 20260509033524 | 73 | 162 | 1.7 | 5.2 | 0.00 | 0.17 | 0.17 | 80 | 1010.1 |
| 20260509032521 | 74 | 147 | 0.9 | 2.6 | 0.00 | 0.17 | 0.17 | 79 | 1010.0 |
| 20260509031517 | 74 | 137 | 0.0 | 1.7 | 0.00 | 0.17 | 0.17 | 78 | 1010.0 |
| 20260509030531 | 74 | 123 | 0.9 | 2.6 | 0.00 | 0.17 | 0.17 | 78 | 1009.9 |
| 20260509025527 | 74 | 161 | 1.7 | 6.1 | 0.00 | 0.17 | 0.17 | 78 | 1009.3 |
| 20260509024522 | 74 | 164 | 1.7 | 3.5 | 0.00 | 0.17 | 0.17 | 78 | 1009.3 |
| 20260509023518 | 74 | 146 | 1.7 | 2.6 | 0.00 | 0.17 | 0.17 | 77 | 1009.5 |
| 20260509022527 | 74 | 149 | 0.9 | 2.6 | 0.00 | 0.17 | 0.17 | 76 | 1009.4 |
| 20260509021523 | 74 | 158 | 0.9 | 1.7 | 0.00 | 0.17 | 0.17 | 76 | 1009.4 |
| 20260509020538 | 74 | 160 | 0.9 | 2.6 | 0.00 | 0.17 | 0.17 | 76 | 1009.3 |
| 20260509015528 | 75 | 152 | 0.9 | 2.6 | 0.00 | 0.17 | 0.17 | 76 | 1009.2 |
| 20260509014523 | 75 | 139 | 0.0 | 0.9 | 0.00 | 0.17 | 0.17 | 75 | 1009.2 |
| 20260509013519 | 75 | 159 | 0.9 | 2.6 | 0.00 | 0.17 | 0.17 | 74 | 1009.0 |
| 20260509012529 | 75 | 139 | 1.7 | 3.5 | 0.00 | 0.17 | 0.17 | 74 | 1008.9 |
| 20260509011524 | 75 | 146 | 1.7 | 3.5 | 0.00 | 0.17 | 0.17 | 73 | 1008.8 |
| 20260509010520 | 76 | 169 | 1.7 | 7.0 | 0.00 | 0.17 | 0.17 | 74 | 1008.7 |
| 20260509005535 | 76 | 148 | 0.0 | 0.9 | 0.00 | 0.17 | 0.17 | 73 | 1008.7 |
| 20260509004545 | 77 | 152 | 0.9 | 1.7 | 0.00 | 0.17 | 0.17 | 71 | 1008.5 |
| 20260509003541 | 77 | 133 | 0.9 | 2.6 | 0.00 | 0.17 | 0.17 | 70 | 1008.4 |
| 20260509002516 | 78 | 111 | 1.7 | 2.6 | 0.00 | 0.17 | 0.17 | 69 | 1008.4 |
| 20260509001607 | 78 | 105 | 1.7 | 2.6 | 0.00 | 0.17 | 0.17 | 68 | 1008.5 |
| 20260509000522 | 78 | 105 | 2.6 | 3.5 | 0.00 | 0.17 | 0.17 | 68 | 1008.6 |
| 20260508235537 | 78 | 133 | 1.7 | 6.1 | 0.00 | 0.17 | 0.17 | 67 | 1008.6 |
| 20260508234528 | 79 | 165 | 1.7 | 3.5 | 0.00 | 0.17 | 0.17 | 67 | 1008.6 |
| 20260508233523 | 79 | 158 | 0.9 | 3.5 | 0.00 | 0.17 | 0.17 | 66 | 1008.8 |
| 20260508232518 | 80 | 170 | 1.7 | 6.1 | 0.00 | 0.17 | 0.17 | 65 | 1008.8 |
| 20260508231529 | 81 | 163 | 2.6 | 7.0 | 0.00 | 0.17 | 0.17 | 63 | 1008.7 |
| 20260508230524 | 82 | 170 | 2.6 | 11.3 | 0.00 | 0.17 | 0.17 | 61 | 1008.7 |
| 20260508225519 | 82 | 160 | 2.6 | 7.0 | 0.00 | 0.17 | 0.17 | 62 | 1008.7 |
| 20260508224530 | 82 | 114 | 0.9 | 3.5 | 0.00 | 0.17 | 0.17 | 62 | 1008.7 |
| 20260508223545 | 82 | 127 | 1.7 | 5.2 | 0.00 | 0.17 | 0.17 | 62 | 1008.7 |
| 20260508222520 | 81 | 129 | 0.9 | 3.5 | 0.00 | 0.17 | 0.17 | 62 | 1008.9 |
| 20260508221536 | 81 | 117 | 0.9 | 3.5 | 0.00 | 0.17 | 0.17 | 62 | 1009.0 |
| 20260508220526 | 79 | 135 | 0.9 | 3.5 | 0.00 | 0.17 | 0.17 | 64 | 1009.2 |
| 20260508215522 | 80 | 164 | 0.9 | 1.7 | 0.00 | 0.17 | 0.17 | 64 | 1009.3 |
| 20260508214517 | 78 | 249 | 0.0 | 0.9 | 0.00 | 0.17 | 0.17 | 67 | 1009.5 |
| 20260508213528 | 76 | 242 | 0.9 | 1.7 | 0.07 | 0.17 | 0.17 | 69 | 1009.7 |
| 20260508212523 | 75 | 275 | 0.0 | 1.7 | 0.13 | 0.17 | 0.17 | 73 | 1009.9 |
| 20260508211518 | 74 | 271 | 0.9 | 3.5 | 0.17 | 0.17 | 0.17 | 73 | 1010.0 |
| 20260508210528 | 73 | 245 | 1.7 | 3.5 | 0.17 | 0.17 | 0.17 | 75 | 1010.2 |
| 20260508205524 | 71 | 155 | 3.5 | 11.3 | 0.17 | 0.17 | 0.17 | 78 | 1009.3 |
| 20260508204519 | 70 | 136 | 7.0 | 16.5 | 0.17 | 0.17 | 0.17 | 79 | 1008.4 |
| 20260508203549 | 72 | 146 | 3.5 | 9.6 | 0.10 | 0.10 | 0.10 | 75 | 1010.3 |
| 20260508202545 | 74 | 141 | 2.6 | 6.1 | 0.05 | 0.05 | 0.05 | 68 | 1011.0 |
| 20260508201520 | 75 | 175 | 3.5 | 7.0 | 0.00 | 0.00 | 0.00 | 61 | 1011.1 |
| 20260508200516 | 77 | 155 | 0.9 | 6.1 | 0.00 | 0.00 | 0.00 | 58 | 1011.6 |
| 20260508195527 | 78 | 160 | 2.6 | 7.0 | 0.00 | 0.00 | 0.00 | 55 | 1011.4 |
| 20260508194522 | 79 | 174 | 2.6 | 7.8 | 0.00 | 0.00 | 0.00 | 52 | 1011.5 |
| 20260508193517 | 82 | 158 | 2.6 | 7.8 | 0.00 | 0.00 | 0.00 | 49 | 1011.4 |
| 20260508192527 | 83 | 157 | 1.7 | 7.0 | 0.00 | 0.00 | 0.00 | 47 | 1011.3 |
| 20260508191522 | 82 | 145 | 3.5 | 7.0 | 0.00 | 0.00 | 0.00 | 48 | 1011.5 |
| 20260508190518 | 81 | 157 | 2.6 | 7.8 | 0.00 | 0.00 | 0.00 | 50 | 1011.7 |
| 20260508185528 | 81 | 165 | 2.6 | 8.7 | 0.00 | 0.00 | 0.00 | 48 | 1011.8 |
| 20260508184524 | 81 | 159 | 3.5 | 7.8 | 0.00 | 0.00 | 0.00 | 49 | 1011.8 |
| 20260508183519 | 81 | 167 | 3.5 | 7.8 | 0.00 | 0.00 | 0.00 | 48 | 1011.9 |
| 20260508182529 | 82 | 151 | 3.5 | 7.0 | 0.00 | 0.00 | 0.00 | 48 | 1012.2 |
| 20260508181525 | 83 | 136 | 2.6 | 7.0 | 0.00 | 0.00 | 0.00 | 46 | 1012.4 |
| 20260508180520 | 85 | 156 | 2.6 | 7.8 | 0.00 | 0.00 | 0.00 | 45 | 1012.4 |
| 20260508175515 | 85 | 141 | 3.5 | 7.0 | 0.00 | 0.00 | 0.00 | 44 | 1012.2 |
| 20260508174546 | 82 | 132 | 2.6 | 6.1 | 0.00 | 0.00 | 0.00 | 47 | 1012.3 |